Time,TemperatureF,DewpointF,PressureIn,WindDirection,WindDirectionDegrees,WindSpeedMPH,WindSpeedGustMPH,Humidity,HourlyPrecipIn,Conditions,Clouds,dailyrainin,SoftwareType,DateUTC
2013-03-22 00:12:00,27.1,26.6,29.71,WSW,247,5.3,-999.0,98,-99.99,,,0.00,Acu-Link.com,2013-03-22 04:12:00,
2013-03-22 00:28:00,27.1,26.6,29.70,West,270,5.8,-999.0,98,-99.99,,,0.00,Acu-Link.com,2013-03-22 04:28:00,
2013-03-22 00:43:00,27.1,26.6,29.69,West,270,5.3,-999.0,98,-99.99,,,0.00,Acu-Link.com,2013-03-22 04:43:00,
2013-03-22 00:58:00,27.1,26.6,29.70,West,270,3.2,-999.0,98,-99.99,,,0.00,Acu-Link.com,2013-03-22 04:58:00,
2013-03-22 01:13:00,27.1,26.6,29.70,WNW,292,3.2,-999.0,98,-99.99,,,0.00,Acu-Link.com,2013-03-22 05:13:00,
2013-03-22 01:28:00,27.0,26.5,29.70,SSW,202,3.7,-999.0,98,-99.99,,,0.00,Acu-Link.com,2013-03-22 05:28:00,
2013-03-22 01:43:00,27.1,26.6,29.69,SSW,202,3.2,-999.0,98,-99.99,,,0.00,Acu-Link.com,2013-03-22 05:43:00,
2013-03-22 01:58:00,27.0,26.5,29.70,SSW,202,6.3,-999.0,98,-99.99,,,0.00,Acu-Link.com,2013-03-22 05:58:00,
2013-03-22 02:28:00,26.1,25.6,29.69,West,270,5.8,-999.0,98,-99.99,,,0.00,Acu-Link.com,2013-03-22 06:28:00,
2013-03-22 02:44:00,26.1,25.6,29.70,West,270,4.2,-999.0,98,-99.99,,,0.00,Acu-Link.com,2013-03-22 06:44:00,
2013-03-22 02:59:00,26.1,25.6,29.70,West,270,4.7,-999.0,98,-99.99,,,0.00,Acu-Link.com,2013-03-22 06:59:00,
2013-03-22 03:14:00,25.9,25.4,29.69,West,270,5.3,-999.0,98,-99.99,,,0.00,Acu-Link.com,2013-03-22 07:14:00,
2013-03-22 03:29:00,26.1,25.6,29.70,SW,225,2.7,-999.0,98,-99.99,,,0.00,Acu-Link.com,2013-03-22 07:29:00,
2013-03-22 03:44:00,26.1,25.6,29.69,WSW,247,3.2,-999.0,98,-99.99,,,0.00,Acu-Link.com,2013-03-22 07:44:00,
2013-03-22 03:59:00,26.2,25.7,29.69,SW,225,5.8,-999.0,98,-99.99,,,0.00,Acu-Link.com,2013-03-22 07:59:00,
2013-03-22 04:14:00,26.2,25.7,29.70,West,270,4.2,-999.0,98,-99.99,,,0.00,Acu-Link.com,2013-03-22 08:14:00,
2013-03-22 04:29:00,26.4,25.9,29.70,West,270,2.7,-999.0,98,-99.99,,,0.00,Acu-Link.com,2013-03-22 08:29:00,
2013-03-22 04:45:00,26.2,25.7,29.70,SW,225,5.3,-999.0,98,-99.99,,,0.00,Acu-Link.com,2013-03-22 08:45:00,
2013-03-22 05:00:00,25.7,25.2,29.69,SW,225,3.7,-999.0,98,-99.99,,,0.00,Acu-Link.com,2013-03-22 09:00:00,
2013-03-22 05:15:00,25.3,24.8,29.70,West,270,2.2,-999.0,98,-99.99,,,0.00,Acu-Link.com,2013-03-22 09:15:00,
2013-03-22 05:30:00,24.8,24.3,29.71,WSW,247,3.7,-999.0,98,-99.99,,,0.00,Acu-Link.com,2013-03-22 09:30:00,
2013-03-22 05:46:00,24.8,24.3,29.70,West,270,3.2,-999.0,98,-99.99,,,0.00,Acu-Link.com,2013-03-22 09:46:00,
2013-03-22 06:01:00,25.2,24.7,29.71,WSW,247,2.2,-999.0,98,-99.99,,,0.00,Acu-Link.com,2013-03-22 10:01:00,
2013-03-22 07:01:00,25.7,25.2,29.71,SSE,157,2.2,-999.0,98,-99.99,,,0.00,Acu-Link.com,2013-03-22 11:01:00,
2013-03-22 07:16:00,25.3,24.8,29.71,South,180,2.7,-999.0,98,-99.99,,,0.00,Acu-Link.com,2013-03-22 11:16:00,
2013-03-22 07:46:00,25.0,24.5,29.73,South,180,2.2,-999.0,98,-99.99,,,0.00,Acu-Link.com,2013-03-22 11:46:00,
2013-03-22 08:01:00,25.0,24.5,29.74,SSW,202,2.7,-999.0,98,-99.99,,,0.00,Acu-Link.com,2013-03-22 12:01:00,
2013-03-22 08:17:00,26.1,25.6,29.74,WSW,247,5.8,-999.0,98,-99.99,,,0.00,Acu-Link.com,2013-03-22 12:17:00,
2013-03-22 08:32:00,26.8,26.3,29.75,WNW,292,2.7,-999.0,98,-99.99,,,0.00,Acu-Link.com,2013-03-22 12:32:00,
2013-03-22 08:47:00,26.8,26.3,29.74,WSW,247,3.2,-999.0,98,-99.99,,,0.00,Acu-Link.com,2013-03-22 12:47:00,
2013-03-22 09:02:00,27.0,26.5,29.75,West,270,2.7,-999.0,98,-99.99,,,0.00,Acu-Link.com,2013-03-22 13:02:00,
2013-03-22 09:17:00,27.0,26.5,29.75,West,270,4.7,-999.0,98,-99.99,,,0.00,Acu-Link.com,2013-03-22 13:17:00,
2013-03-22 09:32:00,27.3,26.8,29.76,SSW,202,7.3,-999.0,98,-99.99,,,0.00,Acu-Link.com,2013-03-22 13:32:00,
2013-03-22 09:47:00,27.7,27.2,29.75,SSW,202,7.3,-999.0,98,-99.99,,,0.00,Acu-Link.com,2013-03-22 13:47:00,
2013-03-22 10:02:00,28.4,27.9,29.76,NW,315,6.8,-999.0,98,-99.99,,,0.00,Acu-Link.com,2013-03-22 14:02:00,
2013-03-22 10:18:00,28.6,28.1,29.75,West,270,4.2,-999.0,98,-99.99,,,0.00,Acu-Link.com,2013-03-22 14:18:00,
2013-03-22 10:33:00,30.2,29.7,29.76,WSW,247,3.2,-999.0,98,-99.99,,,0.00,Acu-Link.com,2013-03-22 14:33:00,
2013-03-22 10:48:00,30.4,29.9,29.75,WSW,247,3.7,-999.0,98,-99.99,,,0.00,Acu-Link.com,2013-03-22 14:48:00,
2013-03-22 11:03:00,30.6,30.1,29.75,SW,225,4.2,-999.0,98,-99.99,,,0.00,Acu-Link.com,2013-03-22 15:03:00,
2013-03-22 11:18:00,29.8,29.3,29.75,SSE,157,5.8,-999.0,98,-99.99,,,0.00,Acu-Link.com,2013-03-22 15:18:00,
2013-03-22 11:33:00,30.2,29.2,29.75,West,270,4.7,-999.0,96,-99.99,,,0.00,Acu-Link.com,2013-03-22 15:33:00,
2013-03-22 11:48:00,30.4,29.4,29.75,South,180,2.7,-999.0,96,-99.99,,,0.00,Acu-Link.com,2013-03-22 15:48:00,
2013-03-22 12:03:00,31.6,29.8,29.75,West,270,3.7,-999.0,93,-99.99,,,0.00,Acu-Link.com,2013-03-22 16:03:00,
2013-03-22 12:18:00,31.8,26.9,29.76,NW,315,4.7,-999.0,82,-99.99,,,0.00,Acu-Link.com,2013-03-22 16:18:00,
2013-03-22 12:33:00,31.8,24.5,29.75,WSW,247,4.2,-999.0,74,-99.99,,,0.00,Acu-Link.com,2013-03-22 16:33:00,
2013-03-22 12:49:00,34.3,24.1,29.74,West,270,4.7,-999.0,66,-99.99,,,0.00,Acu-Link.com,2013-03-22 16:49:00,
2013-03-22 13:04:00,34.9,22.4,29.74,NW,315,5.3,-999.0,60,-99.99,,,0.00,Acu-Link.com,2013-03-22 17:04:00,
2013-03-22 13:19:00,37.6,24.2,29.74,SW,225,10.9,-999.0,58,-99.99,,,0.00,Acu-Link.com,2013-03-22 17:19:00,
2013-03-22 13:34:00,34.3,19.8,29.74,NW,315,3.7,-999.0,55,-99.99,,,0.00,Acu-Link.com,2013-03-22 17:34:00,
2013-03-22 13:49:00,37.6,21.6,29.73,West,270,7.3,-999.0,52,-99.99,,,0.00,Acu-Link.com,2013-03-22 17:49:00,
2013-03-22 14:04:00,38.3,22.2,29.73,West,270,6.3,-999.0,52,-99.99,,,0.00,Acu-Link.com,2013-03-22 18:04:00,
2013-03-22 14:20:00,39.6,22.0,29.72,West,270,6.3,-999.0,49,-99.99,,,0.00,Acu-Link.com,2013-03-22 18:20:00,
2013-03-22 14:35:00,37.6,19.2,29.72,West,270,2.7,-999.0,47,-99.99,,,0.00,Acu-Link.com,2013-03-22 18:35:00,
2013-03-22 14:50:00,40.1,21.0,29.72,West,270,4.2,-999.0,46,-99.99,,,0.00,Acu-Link.com,2013-03-22 18:50:00,
2013-03-22 15:05:00,40.5,20.3,29.71,NW,315,7.3,-999.0,44,-99.99,,,0.00,Acu-Link.com,2013-03-22 19:05:00,
2013-03-22 15:20:00,39.4,19.3,29.72,West,270,4.2,-999.0,44,-99.99,,,0.00,Acu-Link.com,2013-03-22 19:20:00,
2013-03-22 15:35:00,42.1,19.5,29.71,West,270,6.3,-999.0,40,-99.99,,,0.00,Acu-Link.com,2013-03-22 19:35:00,
2013-03-22 15:50:00,41.9,20.5,29.70,SSW,202,5.3,-999.0,42,-99.99,,,0.00,Acu-Link.com,2013-03-22 19:50:00,
2013-03-22 16:05:00,40.3,19.1,29.70,South,180,4.7,-999.0,42,-99.99,,,0.00,Acu-Link.com,2013-03-22 20:05:00,
2013-03-22 16:20:00,41.7,19.8,29.70,West,270,4.2,-999.0,41,-99.99,,,0.00,Acu-Link.com,2013-03-22 20:20:00,
2013-03-22 16:36:00,41.9,19.4,29.70,WSW,247,3.2,-999.0,40,-99.99,,,0.00,Acu-Link.com,2013-03-22 20:36:00,
2013-03-22 17:21:00,44.1,19.5,29.71,WSW,247,3.7,-999.0,37,-99.99,,,0.00,Acu-Link.com,2013-03-22 21:21:00,
2013-03-22 17:36:00,43.0,19.2,29.71,NW,315,4.7,-999.0,38,-99.99,,,0.00,Acu-Link.com,2013-03-22 21:36:00,
2013-03-22 17:51:00,42.4,19.8,29.71,West,270,3.7,-999.0,40,-99.99,,,0.00,Acu-Link.com,2013-03-22 21:51:00,
2013-03-22 18:07:00,44.1,20.1,29.72,West,270,4.7,-999.0,38,-99.99,,,0.00,Acu-Link.com,2013-03-22 22:07:00,
2013-03-22 18:22:00,42.6,18.8,29.71,West,270,5.3,-999.0,38,-99.99,,,0.00,Acu-Link.com,2013-03-22 22:22:00,
2013-03-22 18:37:00,44.2,19.0,29.71,SW,225,3.2,-999.0,36,-99.99,,,0.00,Acu-Link.com,2013-03-22 22:37:00,
2013-03-22 18:52:00,45.1,19.8,29.72,West,270,3.2,-999.0,36,-99.99,,,0.00,Acu-Link.com,2013-03-22 22:52:00,
2013-03-22 19:07:00,44.8,19.5,29.72,West,270,3.2,-999.0,36,-99.99,,,0.00,Acu-Link.com,2013-03-22 23:07:00,
2013-03-22 19:22:00,41.4,18.3,29.73,WNW,292,0.0,-999.0,39,-99.99,,,0.00,Acu-Link.com,2013-03-22 23:22:00,
2013-03-22 19:37:00,39.2,18.6,29.73,ENE,67,0.0,-999.0,43,-99.99,,,0.00,Acu-Link.com,2013-03-22 23:37:00,
2013-03-22 19:52:00,36.9,19.5,29.73,ENE,67,0.0,-999.0,49,-99.99,,,0.00,Acu-Link.com,2013-03-22 23:52:00,
2013-03-22 20:07:00,34.2,27.8,29.74,East,90,2.2,-999.0,77,-99.99,,,0.00,Acu-Link.com,2013-03-23 00:07:00,
2013-03-22 20:23:00,32.5,29.6,29.74,ENE,67,3.7,-999.0,89,-99.99,,,0.00,Acu-Link.com,2013-03-23 00:23:00,
2013-03-22 20:38:00,31.6,31.1,29.74,ENE,67,3.2,-999.0,98,-99.99,,,0.00,Acu-Link.com,2013-03-23 00:38:00,
2013-03-22 20:53:00,30.9,30.4,29.75,ENE,67,2.7,-999.0,98,-99.99,,,0.00,Acu-Link.com,2013-03-23 00:53:00,
2013-03-22 21:08:00,30.4,29.9,29.75,ENE,67,0.0,-999.0,98,-99.99,,,0.00,Acu-Link.com,2013-03-23 01:08:00,
2013-03-22 21:23:00,29.8,29.3,29.76,ENE,67,0.0,-999.0,98,-99.99,,,0.00,Acu-Link.com,2013-03-23 01:23:00,
2013-03-22 21:38:00,28.9,28.4,29.76,ENE,67,0.0,-999.0,98,-99.99,,,0.00,Acu-Link.com,2013-03-23 01:38:00,
2013-03-22 21:53:00,28.4,27.9,29.77,ENE,67,0.0,-999.0,98,-99.99,,,0.00,Acu-Link.com,2013-03-23 01:53:00,
2013-03-22 22:08:00,27.9,27.4,29.77,East,90,0.0,-999.0,98,-99.99,,,0.00,Acu-Link.com,2013-03-23 02:08:00,
2013-03-22 22:23:00,27.1,26.6,29.78,ENE,67,0.0,-999.0,98,-99.99,,,0.00,Acu-Link.com,2013-03-23 02:23:00,
2013-03-22 22:39:00,26.8,26.3,29.78,East,90,0.0,-999.0,98,-99.99,,,0.00,Acu-Link.com,2013-03-23 02:39:00,
2013-03-22 22:54:00,26.2,25.7,29.77,ENE,67,0.0,-999.0,98,-99.99,,,0.00,Acu-Link.com,2013-03-23 02:54:00,
2013-03-22 23:09:00,26.1,25.6,29.77,East,90,0.0,-999.0,98,-99.99,,,0.00,Acu-Link.com,2013-03-23 03:09:00,
2013-03-22 23:24:00,25.5,25.0,29.78,East,90,0.0,-999.0,98,-99.99,,,0.00,Acu-Link.com,2013-03-23 03:24:00,
2013-03-22 23:39:00,25.5,25.0,29.78,ENE,67,0.0,-999.0,98,-99.99,,,0.00,Acu-Link.com,2013-03-23 03:39:00,
2013-03-22 23:54:00,25.2,24.7,29.77,ENE,67,0.0,-999.0,98,-99.99,,,0.00,Acu-Link.com,2013-03-23 03:54:00,